www.pogodaiklimat.ru

Погода и климат >> Архив погоды >> Индонезия >> Менадо


ПОГОДА в Менадо

  • Прогноз погоды в Менадо
  • Монитор погоды в Менадо

АРХИВ ПОГОДЫ в Менадо

Время (UTC), дата Ветер
(напр.,м/с)
 
Видим.   Явления Облачность Т
(С)
Тd
(С)
f
(%)
Тe
(С)
Тes
(С)
Комфортность P
(гПа)
Po
(гПа)
Тmin
(С)
Tmax
(С)
R
(мм)
R24
(мм)
S
(см)
15 11.04 В 2 9000 м 8/5 630 м
[Cu Sc Ac As Ci fib]
+25.9 +24.3 91 +36 +36 очень
душно
1010.5 1001.2
18 11.04 СВ 1 9000 м 8/5 630 м
[Cu Sc Ac As Ci fib]
+24.5 +23.8 96 +33 +33 очень
душно
1009.2 999.9
21 11.04 ЮВ 1 9000 м 8/5 630 м
[Cu Sc Ac As Ci fib]
+24.4 +23.9 97 +33 +33 очень
душно
1009.5 1000.2
00 12.04 СВ 3 2000 м гроза, ливневой дождь 10/6 540 м
[Cb cap As op Ci fib]
+25.0 +24.3 96 +35 +36 очень
душно
1012.3 1003.0 +24.2 23 32
03 12.04 Ю 1 3000 м дождь {гроза} 10/6 500 м
[Cb cap As op Ci fib]
+25.6 +24.4 93 +36 +41 очень
душно
1011.6 1002.3 26
06 12.04 ЮВ 2 9000 м в посл. час гроза {дождь} 10/5 480 м
[Cb cap As op Ci fib]
+26.1 +24.0 88 +36 +40 очень
душно
1009.6 1000.3 10
09 12.04 С 2 7000 м слаб. дождь 9/5 570 м
[Cu Sc Ac As Ci fib]
+28.0 +24.6 82 +40 +40 очень
душно
1009.2 1000.0 0.0
12 12.04 штиль 0 9000 м 9/5 630 м
[Cu Sc Ac As Ci fib]
+25.0 +24.7 98 +35 +35 очень
душно
1011.0 1001.7 +30.4 2
15 12.04 В 1 9000 м 9/5 630 м
[Cu Sc Ac As Ci fib]
+24.1 +23.8 98 +33 +33 очень
душно
1012.0 1002.6
18 12.04 В 2 9000 м 9/5 630 м
[Cu Sc Ac As Ci fib]
+23.4 +23.2 99 +33 +33 очень
душно
1010.4 1001.0
21 12.04 Ю 2 9000 м 9/5 630 м
[Cu Sc Ac As Ci fib]
+23.1 +22.8 98 +32 +32 очень
душно
1010.8 1001.4
00 13.04 штиль 0 10 км 5/4 630 м
[Cu med, cong As trans Ci fib]
+28.1 +24.7 82 +40 +45 очень
душно
1012.5 1003.3 +22.6 37
03 13.04 С 5 10 км 6/5 660 м
[Cu Sc Ac lent Ci fib]
+31.1 +24.2 67 +43 +49 опасность
перегрева
1011.2 1002.1
06 13.04 С 4 8000 м осадки на расстоянии 9/5 660 м
[Cu Sc Ac lent Ci fib]
+30.4 +25.7 76 +45 +48 опасность
перегрева
1009.3 1000.2
09 13.04 СВ 3 9000 м 8/5 600 м
[Cu Sc Ac und Ci fib]
+29.1 +23.5 72 +40 +40 очень
душно
1009.8 1000.6
12 13.04 штиль 0 9000 м 6/5 600 м
[Cu Sc Ac lent Ci fib]
+26.3 +23.6 85 +36 +36 очень
душно
1011.2 1001.9 +31.7
15 13.04 штиль 0 9000 м 8/5 630 м
[Cu Sc Ac As Ci fib]
+24.7 +23.7 94 +34 +34 очень
душно
1011.6 1002.2
18 13.04 В 1 9000 м 6/4 630 м
[Cu Sc Ac As Ci fib]
+24.0 +23.7 98 +33 +33 очень
душно
1010.5 1001.2
21 13.04 штиль 0 9000 м 6/4 630 м
[Cu Sc Ac As Ci fib]
+23.5 +23.3 99 +32 +32 очень
душно
1011.1 1001.7
00 14.04 С 1 10 км 9/3 700 м
[Cu Sc Ac As Ci fib]
+28.0 +23.8 78 +39 +42 очень
душно
1013.0 1003.7 +23.3
03 14.04 С 4 10 км 9/5 630 м
[Cu Sc Ac As Ci fib]
+29.7 +22.9 67 +40 +44 очень
душно
1012.2 1003.0
06 14.04 С 5 10 км 8/3 660 м
[Cu Sc Ac As Ci fib]
+30.5 +20.7 56 +38 +41 очень
душно
1009.7 1000.5
09 14.04 С 3 10 км 6/1 660 м
[Cu hum Ac As Ci fib]
+29.0 +21.7 65 +37 +38 очень
душно
1009.8 1000.6
12 14.04 штиль 0 10 км 4/1 660 м
[Cu hum As trans Ci fib]
+24.7 +22.8 89 +33 +33 очень
душно
1011.8 1002.4 +30.6
15 14.04 В 1 9000 м 4/1 660 м
[Cu hum As trans Ci fib]
+22.7 +21.9 95 +30 +30 очень
душно
1012.2 1002.8
18 14.04 В 1 9000 м 4/1 660 м
[Cu hum As trans Ci fib]
+21.4 +20.7 96 +27 +27 душно 1010.8 1001.2
21 14.04 В 1 8000 м 4/1 660 м
[Cu hum As trans Ci fib]
+21.2 +20.2 94 +26 +26 душно 1010.7 1001.2
00 15.04 С 1 10 км 3/1 720 м
[Sc diur, vesp As trans Ci fib]
+27.6 +21.6 70 +35 +42 очень
душно
1012.4 1003.1 +20.4
03 15.04 СЗ 3 10 км 6/5 700 м
[Cu Sc Ac As Ci fib]
+29.9 +21.6 61 +38 +46 очень
душно
1011.8 1002.6
06 15.04 СЗ 5 10 км 6/5 660 м
[Cu Sc Ac As Ci fib]
+30.5 +21.3 58 +38 +42 очень
душно
1010.0 1000.8
09 15.04 СЗ 2 10 км 5/4 700 м
[Cu Sc Ac As Ci fib]
+28.4 +21.9 68 +37 +37 очень
душно
1010.1 1000.9
12 15.04 СВ 1 10 км 6/4 660 м
[Cu Sc Ac As Ci fib]
+24.4 +22.8 91 +32 +32 очень
душно
1012.0 1002.6 +31.1
15 15.04 штиль 0 10 км 6/4 660 м
[Cu Sc Ac As Ci fib]
+23.3 +22.1 93 +32 +32 очень
душно
1012.4 1003.0
18 15.04 В 1 10 км 6/4 660 м
[Cu Sc Ac As Ci fib]
+22.5 +21.7 95 +30 +30 очень
душно
1010.8 1001.4
21 15.04 штиль 0 10 км 4/3 660 м
[Cu Sc Ac As Ci fib]
+22.0 +21.5 97 +29 +29 очень
душно
1010.7 1001.3
00 16.04 ЮВ 1 10 км 3/1 700 м
[Sc diur, vesp As trans Ci fib]
+28.5 +23.2 73 +38 +45 очень
душно
1012.4 1003.2 +22.0
03 16.04 С 2 10 км 5/3 660 м
[Cu med, cong As trans Ci fib]
+31.0 +24.4 68 +43 +56 опасность
перегрева
1011.4 1002.2
06 16.04 С 4 10 км 6/4 660 м
[Cu Sc Ac As Ci fib]
+31.3 +23.9 65 +43 +48 опасность
перегрева
1009.2 1000.1
09 16.04 С 4 10 км 6/4 660 м
[Cu Sc Ac As Ci fib]
+29.1 +23.8 73 +40 +40 очень
душно
1009.3 1000.1
12 16.04 СВ 2 10 км 6/4 660 м
[Cu Sc Ac As Ci fib]
+26.3 +23.6 85 +36 +36 очень
душно
1011.6 1002.3 +31.8
15 16.04 В 1 10 км 6/4 660 м
[Cu Sc Ac As Ci fib]
+24.8 +23.4 92 +33 +33 очень
душно
1012.3 1002.9
18 16.04 В 1 10 км 6/4 660 м
[Cu Sc Ac As Ci fib]
+23.4 +22.2 93 +32 +32 очень
душно
1010.2 1000.8
21 16.04 В 1 10 км 6/4 660 м
[Cu Sc Ac As Ci fib]
+22.9 +21.5 92 +31 +31 очень
душно
1010.4 1001.0
00 17.04 СВ 1 10 км 4/3 630 м
[Cu Sc As trans Ci fib]
+29.3 +23.7 72 +40 +46 очень
душно
1011.9 1002.7 +22.5
03 17.04 С 3 10 км 8/6 630 м
[Cu Sc As trans Ci fib]
+29.6 +23.5 70 +40 +45 очень
душно
1011.6 1002.4
06 17.04 С 4 10 км 8/6 630 м
[Cu Sc As trans Ci fib]
+30.1 +23.0 66 +40 +43 очень
душно
1009.5 1000.3
09 17.04 С 2 9000 м осадки на расстоянии 8/5 600 м
[Cu Sc Ac As Ci fib]
+29.0 +23.4 72 +39 +40 очень
душно
1009.6 1000.4
12 17.04 штиль 0 9000 м 6/5 630 м
[Cu Sc As trans Ci fib]
+26.0 +23.9 88 +36 +36 очень
душно
1011.7 1002.4 +31.0
15 17.04 штиль 0 9000 м 6/5 630 м
[Cu Sc As trans Ci fib]
+24.6 +23.6 94 +33 +33 очень
душно
1012.3 1002.9
18 17.04 штиль 0 9000 м 6/5 630 м
[Cu Sc As trans Ci fib]
+23.3 +22.8 97 +32 +32 очень
душно
1010.2 1000.8
21 17.04 В 1 9000 м 6/5 630 м
[Cu Sc As trans Ci fib]
+22.6 +21.8 95 +30 +30 очень
душно
1010.7 1001.3
00 18.04 З 1 10 км 4/1 700 м
[St Ac As Ci fib]
+29.4 +22.4 66 +38 +45 очень
душно
1012.6 1003.4 +22.6
03 18.04 С 3 10 км 9/5 630 м
[Cu Sc Ac As Ci fib]
+30.7 +23.9 67 +42 +48 опасность
перегрева
1011.5 1002.3
06 18.04 СЗ 1 9000 м в посл. час дождь {гроза} 9/5 600 м
[Cu Sc Ac As Ci fib]
+25.3 +23.8 91 +34 +40 очень
душно
1010.3 1000.7 37
09 18.04 С 2 10 км 8/5 630 м
[Cu Sc Ac As Ci fib]
+28.2 +24.8 82 +40 +41 очень
душно
1009.3 1000.1
12 18.04 СВ 2 9000 м 5/3 630 м
[Cu Sc Ac As Ci fib]
+25.4 +24.0 92 +35 +35 очень
душно
1011.3 1002.0 +31.5

 

Местоположение метеостанции Менадо (Индонезия): широта 1.53 долгота 124.91 высота над уровнем моря 80 м.

В архиве по умолчанию представлена погода в Менадо за последнюю неделю. Архивные данные за месяц целиком и за предыдущие месяцы, начиная с января 2011 года, Вы можете получить, выбрав интересующий диапазон дат из раскрывающегося списка и нажав кнопку "Ввод!".


*Определитесь, кто Вы:
робот инопланетянин человек

Внимание! Время в таблицах - всемирное. Для получения местного времени необходимо прибавить поправку, которая равна 8 ч.

Смотрите также архив погоды в соседних городах и на ближайших метеорологических станциях:

Погода в Битунге (Индонезия) (32 км)
Погода в Горонтало (Индонезия) (234 км)
Погода в Тернате (Индонезия) (285 км)
Погода в Голеа (Индонезия) (326 км)
Погода в Лувуке (Индонезия) (359 км)
Погода в Лабухе (Индонезия) (375 км)
Погода на Санане (Индонезия) (419 км)
Погода в Толи-Толи (Индонезия) (461 км)
Погода в Генерал-Сантосе (Филиппины) (511 км)
Погода в Посо (Индонезия) (566 км)

Пояснения к столбцам:

Ветер - указаны скорость ветра в м/с - средняя за 10 мин, порывы в срок и между сроками (в фигурных скобках) и направление, откуда дует ветер: С - северный, СВ - северо-восточный, В - восточный, ЮВ - юго-восточный, Ю - южный, ЮЗ - юго-западный, З - западный, СЗ - северо-западный.
Видимость - горизонтальная дальность видимости в метрах или километрах. При видимости от 1 до 10 км при отсутствии осадков обычно наблюдается дымка, при ухудшении видимости до 1 км и менее - туман. В сухую погоду видимость может ухудшаться дымом, пылью или мглою.
Явления - указаны атмосферные явления, наблюдавшиеся в срок или в последний час перед сроком; фигурными скобками обозначены явления, наблюдавшиеся между сроками (за 1-3 часа до срока); квадратными скобками обозначены град или гололедные отложения с указанием их диаметра в мм.
Облачность - указаны через наклонную черту общая и нижняя облачность в баллах и высота нижней границы облаков в метрах; квадратными скобками обозначены формы облаков: Ci - перистые, Cs - перисто-слоистые, Cc - перисто-кучевые, Ac - высококучевые, As - высокослоистые, Sc - слоисто-кучевые, Ns - слоисто-дождевые, Cu - кучевые, Cb - кучево-дождевые. Подробнее классификацию облаков см. в Атласе облаков (PDF).
T - Температура воздуха - температура, измеренная на высоте 2 м над землей.
Td - Температура точки росы - температура, при понижении до которой содержащийся в воздухе водяной пар достигнет насыщения.
f - Относительная влажность воздуха - влажноcть воздуха, измеренная на высоте 2 м над землей.
Te - Эффективная температура - температура, которую ощущает одетый по сезону человек в тени. Характеристика душности погоды. При расчете учитывается влияние влажности воздуха и скорости ветра на теплоощущения человека.
Tes - Эффективная температура на солнце - температура, которую ощущает человек, с поправкой на солнечный нагрев. Характеристика знойности погоды. Зависит от высоты солнца над горизонтом, облачности и скорости ветра. Ночью, в пасмурную погоду, а также при ветре 12 м/с и более поправка равна нулю.
P - Атмосферное давление - приведенное к уровню моря атмосферное давление.
Po - Атмосферное давление - измеренное на уровне метеостанции атмосферное давление.
Tmin - Минимальная температура - минимум температуры воздуха на высоте 2 м над землей.
Tmax - Максимальная температура - максимум температуры воздуха на высоте 2 м над землей.
R - Количество осадков - Количество выпавших осадков за период времени, мм. При наведении курсора мыши на число - период времени, за который выпало указанное количество осадков.
R24 - Количество осадков - Количество выпавших осадков за 24 часа, мм.
S - Снежный покров - Высота снежного покрова, см. При наведении курсора мыши на число - состояние снежного покрова и степень покрытия местности в баллах.